[{"OBJECT_NAME":"COSMOS 2251 DEB","OBJECT_ID":"1993-036ADE","EPOCH":"2026-09-11T00:06:59.788224","MEAN_MOTION":14.79389753,"ECCENTRICITY":0.00832452,"INCLINATION":74.0109,"RA_OF_ASC_NODE":260.5325,"ARG_OF_PERICENTER":325.0386,"MEAN_ANOMALY":34.5339,"EPHEMERIS_TYPE":0,"CLASSIFICATION_TYPE":"U","NORAD_CAT_ID":34909,"ELEMENT_SET_NO":999,"REV_AT_EPOCH":70876,"BSTAR":0.00026351517,"MEAN_MOTION_DOT":0.00002045,"MEAN_MOTION_DDOT":0},{"OBJECT_NAME":"COSMOS 2251 DEB","OBJECT_ID":"1993-036ADF","EPOCH":"2026-09-10T15:43:07.976352","MEAN_MOTION":13.38026846,"ECCENTRICITY":0.04661945,"INCLINATION":73.8752,"RA_OF_ASC_NODE":32.1555,"ARG_OF_PERICENTER":104.459,"MEAN_ANOMALY":276.1358,"EPHEMERIS_TYPE":0,"CLASSIFICATION_TYPE":"U","NORAD_CAT_ID":34910,"ELEMENT_SET_NO":999,"REV_AT_EPOCH":85161,"BSTAR":0.00020988277,"MEAN_MOTION_DOT":0.0000019,"MEAN_MOTION_DDOT":0},{"OBJECT_NAME":"COSMOS 2251 DEB","OBJECT_ID":"1993-036ADG","EPOCH":"2026-09-11T23:43:08.547168","MEAN_MOTION":14.5967824,"ECCENTRICITY":0.0082966,"INCLINATION":74.0388,"RA_OF_ASC_NODE":83.8108,"ARG_OF_PERICENTER":141.079,"MEAN_ANOMALY":12.9381,"EPHEMERIS_TYPE":0,"CLASSIFICATION_TYPE":"U","NORAD_CAT_ID":34911,"ELEMENT_SET_NO":999,"REV_AT_EPOCH":92573,"BSTAR":0.0000846,"MEAN_MOTION_DOT":0.00000391,"MEAN_MOTION_DDOT":0},{"OBJECT_NAME":"COSMOS 2251 DEB","OBJECT_ID":"1993-036ADJ","EPOCH":"2026-09-11T22:55:37.037856","MEAN_MOTION":14.34702399,"ECCENTRICITY":0.0021324,"INCLINATION":74.0282,"RA_OF_ASC_NODE":141.7752,"ARG_OF_PERICENTER":191.6608,"MEAN_ANOMALY":182.2847,"EPHEMERIS_TYPE":0,"CLASSIFICATION_TYPE":"U","NORAD_CAT_ID":34913,"ELEMENT_SET_NO":999,"REV_AT_EPOCH":69106,"BSTAR":0.00003061,"MEAN_MOTION_DOT":6.1e-7,"MEAN_MOTION_DDOT":0},{"OBJECT_NAME":"COSMOS 2251 DEB","OBJECT_ID":"1993-036ADP","EPOCH":"2026-08-15T16:52:18.329952","MEAN_MOTION":14.64452219,"ECCENTRICITY":0.00241411,"INCLINATION":74.0678,"RA_OF_ASC_NODE":202.9076,"ARG_OF_PERICENTER":109.7617,"MEAN_ANOMALY":64.5438,"EPHEMERIS_TYPE":0,"CLASSIFICATION_TYPE":"U","NORAD_CAT_ID":34918,"ELEMENT_SET_NO":999,"REV_AT_EPOCH":68933,"BSTAR":0.00051697581,"MEAN_MOTION_DOT":0.00002719,"MEAN_MOTION_DDOT":0},{"OBJECT_NAME":"COSMOS 2251 DEB","OBJECT_ID":"1993-036ADV","EPOCH":"2026-09-11T06:09:01.454112","MEAN_MOTION":14.61845732,"ECCENTRICITY":0.00563053,"INCLINATION":74.0374,"RA_OF_ASC_NODE":288.6078,"ARG_OF_PERICENTER":301.9893,"MEAN_ANOMALY":184.183,"EPHEMERIS_TYPE":0,"CLASSIFICATION_TYPE":"U","NORAD_CAT_ID":34924,"ELEMENT_SET_NO":999,"REV_AT_EPOCH":91703,"BSTAR":0.00036478007,"MEAN_MOTION_DOT":0.00001833,"MEAN_MOTION_DDOT":0},{"OBJECT_NAME":"COSMOS 2251 DEB","OBJECT_ID":"1993-036ADX","EPOCH":"2026-09-09T00:01:05.628576","MEAN_MOTION":14.14825381,"ECCENTRICITY":0.02194091,"INCLINATION":73.746,"RA_OF_ASC_NODE":104.1552,"ARG_OF_PERICENTER":268.0477,"MEAN_ANOMALY":89.5525,"EPHEMERIS_TYPE":0,"CLASSIFICATION_TYPE":"U","NORAD_CAT_ID":34944,"ELEMENT_SET_NO":999,"REV_AT_EPOCH":67904,"BSTAR":0.00026307742,"MEAN_MOTION_DOT":0.0000061,"MEAN_MOTION_DDOT":0},{"OBJECT_NAME":"COSMOS 2251 DEB","OBJECT_ID":"1993-036ADZ","EPOCH":"2026-09-10T11:21:40.892544","MEAN_MOTION":14.63301848,"ECCENTRICITY":0.00518215,"INCLINATION":74.0231,"RA_OF_ASC_NODE":180.86,"ARG_OF_PERICENTER":249.5582,"MEAN_ANOMALY":110.0017,"EPHEMERIS_TYPE":0,"CLASSIFICATION_TYPE":"U","NORAD_CAT_ID":34946,"ELEMENT_SET_NO":999,"REV_AT_EPOCH":92182,"BSTAR":0.00023111868,"MEAN_MOTION_DOT":0.00001183,"MEAN_MOTION_DDOT":0},{"OBJECT_NAME":"COSMOS 2251 DEB","OBJECT_ID":"1993-036AEC","EPOCH":"2026-09-11T11:22:25.648608","MEAN_MOTION":14.75252455,"ECCENTRICITY":0.00777671,"INCLINATION":74.0162,"RA_OF_ASC_NODE":296.2327,"ARG_OF_PERICENTER":10.5043,"MEAN_ANOMALY":349.7732,"EPHEMERIS_TYPE":0,"CLASSIFICATION_TYPE":"U","NORAD_CAT_ID":34949,"ELEMENT_SET_NO":999,"REV_AT_EPOCH":92382,"BSTAR":0.00016988438,"MEAN_MOTION_DOT":0.00001171,"MEAN_MOTION_DDOT":0},{"OBJECT_NAME":"COSMOS 2251 DEB","OBJECT_ID":"1993-036AEG","EPOCH":"2026-09-11T08:23:44.225088","MEAN_MOTION":14.71494485,"ECCENTRICITY":0.00535319,"INCLINATION":74.09,"RA_OF_ASC_NODE":220.3198,"ARG_OF_PERICENTER":142.5492,"MEAN_ANOMALY":7.5849,"EPHEMERIS_TYPE":0,"CLASSIFICATION_TYPE":"U","NORAD_CAT_ID":34953,"ELEMENT_SET_NO":999,"REV_AT_EPOCH":92135,"BSTAR":0.0004233477,"MEAN_MOTION_DOT":0.00002654,"MEAN_MOTION_DDOT":0},{"OBJECT_NAME":"COSMOS 2251 DEB","OBJECT_ID":"1993-036AEJ","EPOCH":"2026-09-10T16:52:24.288096","MEAN_MOTION":15.04937982,"ECCENTRICITY":0.00698302,"INCLINATION":74.0336,"RA_OF_ASC_NODE":51.0207,"ARG_OF_PERICENTER":48.6721,"MEAN_ANOMALY":312.0448,"EPHEMERIS_TYPE":0,"CLASSIFICATION_TYPE":"U","NORAD_CAT_ID":34955,"ELEMENT_SET_NO":999,"REV_AT_EPOCH":94120,"BSTAR":0.00034581777,"MEAN_MOTION_DOT":0.00005132,"MEAN_MOTION_DDOT":0},{"OBJECT_NAME":"COSMOS 2251 DEB","OBJECT_ID":"1993-036AER","EPOCH":"2026-09-09T09:33:41.517216","MEAN_MOTION":14.47269768,"ECCENTRICITY":0.00176635,"INCLINATION":74.029,"RA_OF_ASC_NODE":47.4081,"ARG_OF_PERICENTER":96.1117,"MEAN_ANOMALY":264.2055,"EPHEMERIS_TYPE":0,"CLASSIFICATION_TYPE":"U","NORAD_CAT_ID":34962,"ELEMENT_SET_NO":999,"REV_AT_EPOCH":91493,"BSTAR":0.00024656892,"MEAN_MOTION_DOT":0.00000877,"MEAN_MOTION_DDOT":0},{"OBJECT_NAME":"COSMOS 2251 DEB","OBJECT_ID":"1993-036AES","EPOCH":"2026-09-11T17:23:49.619904","MEAN_MOTION":14.53219742,"ECCENTRICITY":0.00400512,"INCLINATION":74.167,"RA_OF_ASC_NODE":252.3784,"ARG_OF_PERICENTER":1.4252,"MEAN_ANOMALY":358.7017,"EPHEMERIS_TYPE":0,"CLASSIFICATION_TYPE":"U","NORAD_CAT_ID":34963,"ELEMENT_SET_NO":999,"REV_AT_EPOCH":90764,"BSTAR":0.00072839369,"MEAN_MOTION_DOT":0.00003025,"MEAN_MOTION_DDOT":0},{"OBJECT_NAME":"COSMOS 2251 DEB","OBJECT_ID":"1993-036AET","EPOCH":"2026-08-22T20:07:19.059456","MEAN_MOTION":14.01696344,"ECCENTRICITY":0.02077625,"INCLINATION":73.9683,"RA_OF_ASC_NODE":266.9057,"ARG_OF_PERICENTER":70.1551,"MEAN_ANOMALY":292.1845,"EPHEMERIS_TYPE":0,"CLASSIFICATION_TYPE":"U","NORAD_CAT_ID":34964,"ELEMENT_SET_NO":999,"REV_AT_EPOCH":88023,"BSTAR":0.00082373099,"MEAN_MOTION_DOT":0.00001486,"MEAN_MOTION_DDOT":0},{"OBJECT_NAME":"COSMOS 2251 DEB","OBJECT_ID":"1993-036AEU","EPOCH":"2026-09-11T12:05:08.891232","MEAN_MOTION":14.49227117,"ECCENTRICITY":0.00250855,"INCLINATION":74.0539,"RA_OF_ASC_NODE":337.5711,"ARG_OF_PERICENTER":31.9943,"MEAN_ANOMALY":328.2734,"EPHEMERIS_TYPE":0,"CLASSIFICATION_TYPE":"U","NORAD_CAT_ID":34965,"ELEMENT_SET_NO":999,"REV_AT_EPOCH":91064,"BSTAR":0.00012817241,"MEAN_MOTION_DOT":0.00000463,"MEAN_MOTION_DDOT":0},{"OBJECT_NAME":"COSMOS 2251 DEB","OBJECT_ID":"1993-036AEW","EPOCH":"2026-09-11T06:26:12.622560","MEAN_MOTION":14.45251993,"ECCENTRICITY":0.00394494,"INCLINATION":73.9903,"RA_OF_ASC_NODE":104.9784,"ARG_OF_PERICENTER":188.5883,"MEAN_ANOMALY":171.4605,"EPHEMERIS_TYPE":0,"CLASSIFICATION_TYPE":"U","NORAD_CAT_ID":34967,"ELEMENT_SET_NO":999,"REV_AT_EPOCH":68893,"BSTAR":0.00029629103,"MEAN_MOTION_DOT":0.00001022,"MEAN_MOTION_DDOT":0},{"OBJECT_NAME":"COSMOS 2251 DEB","OBJECT_ID":"1993-036AEX","EPOCH":"2026-09-11T19:56:06.595296","MEAN_MOTION":14.59746958,"ECCENTRICITY":0.00857933,"INCLINATION":74.0367,"RA_OF_ASC_NODE":86.318,"ARG_OF_PERICENTER":138.6775,"MEAN_ANOMALY":222.0926,"EPHEMERIS_TYPE":0,"CLASSIFICATION_TYPE":"U","NORAD_CAT_ID":34968,"ELEMENT_SET_NO":999,"REV_AT_EPOCH":92462,"BSTAR":0.000095204095,"MEAN_MOTION_DOT":0.00000447,"MEAN_MOTION_DDOT":0},{"OBJECT_NAME":"COSMOS 2251 DEB","OBJECT_ID":"1993-036AEY","EPOCH":"2026-09-09T17:16:19.141536","MEAN_MOTION":14.32638508,"ECCENTRICITY":0.00756295,"INCLINATION":74.0111,"RA_OF_ASC_NODE":247.7944,"ARG_OF_PERICENTER":314.8075,"MEAN_ANOMALY":44.6942,"EPHEMERIS_TYPE":0,"CLASSIFICATION_TYPE":"U","NORAD_CAT_ID":34969,"ELEMENT_SET_NO":999,"REV_AT_EPOCH":69017,"BSTAR":0.00017217362,"MEAN_MOTION_DOT":0.00000456,"MEAN_MOTION_DDOT":0},{"OBJECT_NAME":"COSMOS 2251 DEB","OBJECT_ID":"1993-036AFA","EPOCH":"2026-09-10T10:13:26.213376","MEAN_MOTION":14.56025974,"ECCENTRICITY":0.00707363,"INCLINATION":73.9776,"RA_OF_ASC_NODE":128.1693,"ARG_OF_PERICENTER":288.1936,"MEAN_ANOMALY":247.1364,"EPHEMERIS_TYPE":0,"CLASSIFICATION_TYPE":"U","NORAD_CAT_ID":34971,"ELEMENT_SET_NO":999,"REV_AT_EPOCH":70126,"BSTAR":0.000078010126,"MEAN_MOTION_DOT":0.00000323,"MEAN_MOTION_DDOT":0},{"OBJECT_NAME":"COSMOS 2251 DEB","OBJECT_ID":"1993-036AFB","EPOCH":"2026-09-11T22:49:49.796256","MEAN_MOTION":14.77481268,"ECCENTRICITY":0.00345066,"INCLINATION":73.9848,"RA_OF_ASC_NODE":233.8451,"ARG_OF_PERICENTER":316.144,"MEAN_ANOMALY":74.1972,"EPHEMERIS_TYPE":0,"CLASSIFICATION_TYPE":"U","NORAD_CAT_ID":34972,"ELEMENT_SET_NO":999,"REV_AT_EPOCH":91680,"BSTAR":0.00087970692,"MEAN_MOTION_DOT":0.00006304,"MEAN_MOTION_DDOT":0},{"OBJECT_NAME":"COSMOS 2251 DEB","OBJECT_ID":"1993-036AFF","EPOCH":"2026-09-11T22:17:36.635136","MEAN_MOTION":14.803028,"ECCENTRICITY":0.00433064,"INCLINATION":74.0542,"RA_OF_ASC_NODE":129.751,"ARG_OF_PERICENTER":108.3106,"MEAN_ANOMALY":265.6552,"EPHEMERIS_TYPE":0,"CLASSIFICATION_TYPE":"U","NORAD_CAT_ID":34976,"ELEMENT_SET_NO":999,"REV_AT_EPOCH":92312,"BSTAR":0.00057148703,"MEAN_MOTION_DOT":0.00004393,"MEAN_MOTION_DDOT":0},{"OBJECT_NAME":"COSMOS 2251 DEB","OBJECT_ID":"1993-036AFJ","EPOCH":"2026-09-11T14:23:01.807872","MEAN_MOTION":14.83253261,"ECCENTRICITY":0.00457504,"INCLINATION":74.0359,"RA_OF_ASC_NODE":88.4628,"ARG_OF_PERICENTER":99.2723,"MEAN_ANOMALY":261.3633,"EPHEMERIS_TYPE":0,"CLASSIFICATION_TYPE":"U","NORAD_CAT_ID":34979,"ELEMENT_SET_NO":999,"REV_AT_EPOCH":92261,"BSTAR":0.00055620229,"MEAN_MOTION_DOT":0.00004599,"MEAN_MOTION_DDOT":0},{"OBJECT_NAME":"COSMOS 2251 DEB","OBJECT_ID":"1993-036AFN","EPOCH":"2026-09-10T06:34:06.511872","MEAN_MOTION":14.4295445,"ECCENTRICITY":0.00151021,"INCLINATION":74.0436,"RA_OF_ASC_NODE":107.6886,"ARG_OF_PERICENTER":109.2572,"MEAN_ANOMALY":251.022,"EPHEMERIS_TYPE":0,"CLASSIFICATION_TYPE":"U","NORAD_CAT_ID":34990,"ELEMENT_SET_NO":999,"REV_AT_EPOCH":91262,"BSTAR":0.00019116516,"MEAN_MOTION_DOT":0.00000614,"MEAN_MOTION_DDOT":0}]